Content
SEND FEEDBACK

Daily
Averages
Monthly
Summary
Philippines

OLONGAPO, PHILIPPINES


Home > Asia > Philippines
Elevation: 16 meters     Latitude: 14 48N     Longitude: 120 16E

WEATHER
 
SELECT A DAY
Number of Records: 134,849;   Date Range: 7/31/96 - 7/22/14
 
SHARE

PRINT THIS DATA

[ ← Previous Day ]
WEATHER ALMANAC - 28 SEPTEMBER, 2013
[ Next Day → ]
[ °F ]   °C
Weather ElementAverageHighLow
Temperature26.8 °C32 °C (1:00 pm)25 °C (2:00 am)
Dewpoint23.2 °C25 °C (10:00 am)22.2 °C (2:00 am)
Humidity79.9 %94 % (8:00 pm)58 % (11:00 am)
Barometer1005.8 hPa1007.1 hPa (9:00 am)1004.1 hPa (1:00 pm)
Wind Speed9.5 km/h25.9 km/h (3:00 pm)
Weather ElementAverage
Visibility10.9 km
Wind DirectionESE (106.3 °)

Weather ElementTotal
Precipitation---
Cooling Degree Days10.2 (Base 18.3)
Growing Degree Days18.5 (Base 10)
Averaged from 27 records on 28 September, 2013
WEATHER CONDITIONS BREAKOUT
WIND DIRECTION BREAKOUT
WEATHER BY HOUR - 28 SEPTEMBER, 2013
[ °F ]   °C
Local TimeTemperatureDewpointHumidityBarometerVisibilityWind DirectionWind SpeedGust SpeedPrecipitationEventsConditions
2:00 AM25 °C22.2 °C80 %1006.4 hPa9.7 kmSouth (180°)3.5 km/hHaze
5:00 AM25.6 °C22.8 °C80 %1005.8 hPa14.5 kmSouth (180°)18 km/hHaze
5:00 AM26 °C23 °C83 %1005.1 hPa10 kmSouth (180°)18.5 km/hMostly Cloudy
6:00 AM26 °C23 °C83 %1005.1 hPa10 kmSSE (160°)13 km/hMostly Cloudy
7:00 AM26 °C23 °C83 %1006.1 hPa10 kmSE (140°)7.4 km/hMostly Cloudy
8:00 AM26.7 °C23.3 °C77 %1006.8 hPa14.5 kmSouth (180°)7.2 km/hHaze
8:00 AM27 °C23 °C79 %1006.1 hPa10 kmVariable5.6 km/hMostly Cloudy
9:00 AM26 °C23 °C83 %1007.1 hPa10 kmVariable3.7 km/hMostly Cloudy
10:00 AM29 °C25 °C79 %1006.1 hPa10 kmVariable3.7 km/hMostly Cloudy
11:00 AM30.6 °C23.3 °C58 %1006.1 hPa19.3 kmSouth (180°)14.3 km/hHaze
11:00 AM30 °C24 °C70 %1006.1 hPa10 kmSouth (180°)13 km/hScattered Clouds
12:00 PM31 °C23 °C62 %1005.1 hPa10 kmSouth (180°)7.4 km/hPartly Cloudy
1:00 PM32 °C23 °C59 %1004.1 hPa10 kmSSE (160°)14.8 km/hPartly Cloudy
2:00 PM30 °C23 °C66 %1004.1 hPa10 kmSW (230°)22.2 km/hMostly Cloudy
2:00 PM25 °C1004.1 hPa19.3 kmNNE (30°)7.2 km/hHaze
3:00 PM26 °C24 °C89 %1004.1 hPa8 kmSSW (200°)25.9 km/hOvercast
4:00 PM27 °C23 °C79 %1004.1 hPa10 kmSSE (160°)14.8 km/hRainLight Rain Showers
5:00 PM26.1 °C22.8 °C77 %1004.7 hPa11.3 kmEast (80°)7.2 km/hRainLight Rain Showers
5:00 PM26 °C23 °C83 %1004.1 hPa10 kmEast (80°)7.4 km/hMostly Cloudy
6:00 PM25 °C23 °C89 %1006.1 hPa8 kmEast (80°)7.4 km/hRainLight Rain
7:00 PM25 °C23 °C89 %1006.1 hPa10 kmEast (80°)5.6 km/hOvercast
8:00 PM25.6 °C23.3 °C85 %1006.4 hPa9.7 kmENE (60°)7.2 km/hRainLight Rain
8:00 PM25 °C24 °C94 %1006.1 hPa10 kmENE (60°)7.4 km/hRainLight Rain
9:00 PM25 °C23 °C89 %1007.1 hPa10 kmCalmOvercast
10:00 PM25 °C23 °C89 %1007.1 hPa10 kmCalmOvercast
11:00 PM25 °C22.8 °C83 %1006.8 hPa11.3 kmEast (90°)7.2 km/hHaze
11:00 PM25 °C23 °C89 %1006.1 hPa10 kmVariable5.6 km/hOvercast
Hourly data recorded from RPLB, located 0 kilometers away from Olongapo, Philippines







STORIES FROM OUR PARTNERS